Hourly Data Report for December 20, 2003

SHERBROOKE A
QUEBEC

45°26'00.000" N
71°41'00.000" W
241.40 m
7028124
71610
YSC

Download Data

Hourly Data (December 2003)
Hourly Data Report for December 20, 2003
TIME
LST
Temp Definition
°C
Dew Point Definition
°C
Rel Hum Definition
%
Precip. Amount Definition
mm

Wind Dir Definition
10's deg

Wind Spd Definition
km/h
Visibility Definition
km
Stn Press Definition
kPa
Hmdx Definition


Wind Chill Definition


Weather Definition


00:00 -8.6 -10.3 87   21 4 8.0 97.75   -11 Snow
01:00 -8.8 -10.5 87     0 2.7 97.77     Snow
02:00 -9.1 -10.7 88     0 6.4 97.80     Snow
03:00 -9.0 -10.5 89     0 8.0 97.77      
04:00 -9.4 -11.1 87   26 4 12.9 97.80   -12  
05:00 -10.3 -11.9 88   28 4 11.3 97.85   -13  
06:00 -10.4 -12.1 87   27 6 15.0 97.92   -14  
07:00 -10.8 -12.5 87   27 6 15.0 98.01   -14  
08:00 -12.4 -13.8 89   26 4 19.3 98.09   -15 Mostly Cloudy
09:00 -11.9 -13.8 86   27 7 19.3 98.20   -16 Mostly Cloudy
10:00 -12.4 -14.2 86   26 7 19.3 98.28   -17 Snow Showers
11:00 -10.8 -13.1 83   28 4 19.3 98.24   -13 Snow Showers
12:00 -10.0 -12.7 81   27 9 19.3 98.22   -15 Mainly Clear
13:00 -9.4 -12.4 79   28 13 19.3 98.24   -15 Mostly Cloudy
14:00 -9.8 -12.4 81   28 9 16.1 98.29   -15 Snow Showers
15:00 -9.7 -12.4 81   28 9 19.3 98.38   -15 Snow Showers
16:00 -10.2 -12.4 84   28 7 3.2 98.47   -14 Snow Showers
17:00 -11.0 -12.9 86   29 4 8.0 98.57   -13 Snow Showers
18:00 -10.8 -13.0 84   30 9 9.7 98.65   -16 Snow
19:00 -11.3 -13.2 86   26 7 3.5 98.73   -16 Snow
20:00 -11.5 -13.8 83   25 9 8.0 98.79   -17 Snow
21:00 -11.8 -14.1 83   25 7 9.7 98.82   -16  
22:00 -12.6 -14.8 84   23 9 15.0 98.85   -18 Snow
23:00 -13.1 -15.3 84   22 9 4.8 98.86   -19 Snow

Notes on Data Quality.

Legend

  • E = Estimated
  • M = Missing
  • NA = Not Available*
  • [empty] = Indicates an unobserved value
Date modified: